Location: Kellogg
(38.0159°N, 90.0546°W)
Time: 15:19:27
(UTC+00:00)

Transit 2A - Pass Details

Date: 20 September 2024
Orbit: 590 x 960 km, 66.7° (Epoch: 07 October)

Event Time Altitude Azimuth Distance (km) Brightness Sun altitude
Rises 08:43:01 0° 329° (NNW) 3,608 9.5 -35.0°
Enters shadow 08:43:38 - 329° (NNW) 3,378 9.4 -34.9°
Reaches altitude 10° 08:45:39 10° 327° (NNW) 2,629 - -34.5°
Maximum altitude 08:51:44 68° 246° (WSW) 937 - -33.5°
Drops below altitude 10° 08:57:17 10° 164° (SSE) 2,397 - -32.6°
Sets 08:59:36 0° 162° (SSE) 3,268 - -32.2°
